sat.trackr.live / text

‹ back to catalog

STARLINK-33930

NORAD 63776 · 2025-091B

PAYLOAD ACTIVE UNKNOWN

§ Identity

Operator
Country
US
Launch date
2025-05-02
Launch site
AFETR
Launch vehicle
Mass (kg)
RCS (m²)

Purposes: comms

External: N2YO · Heavens-Above · Gunter

§ Orbital elements

Epoch: 2026-05-24T23:06:36.167040Z

Period
94.27 min
Inclination
43.0007°
Eccentricity
0.0001364
Mean motion
15.27595053 rev/d
Perigee alt
482.1 km
Apogee alt
483.9 km
Semi-major
6,861.1 km
B*
5.4317e-4
RAAN
342.0882°
Arg perigee
276.2126°
Mean anomaly
83.8570°
Rev number
6,056

§ Raw data

STARLINK-339301 63776U 25091B   26144.96291860  .00014722  00000+0  54317-3 0  99922 63776  43.0007 342.0882 0001364 276.2126  83.8570 15.27595053 60562

JSON: /api/v1/satellites/63776 · /tle

For live sub-satellite position, see the globe view (requires WebGL).

§ Visibility from observer

Set your observer location to see the next 7 days of passes ≥ 10°. The values pass through the URL so the page stays shareable.

No JS? Fill the form by hand. The geolocation button needs JavaScript.